Time,TemperatureF,DewpointF,PressureIn,WindDirection,WindDirectionDegrees,WindSpeedMPH,WindSpeedGustMPH,Humidity,HourlyPrecipIn,Conditions,Clouds,dailyrainin,SoftwareType,DateUTC
2013-07-01 14:02:00,81.0,56.0,30.15,North,0,0.0,0.0,42,0.00,,,0.00,,2013-07-01 19:02:00,
2013-07-01 14:11:00,81.0,56.0,30.15,North,0,0.0,0.0,42,0.00,,,0.00,,2013-07-01 19:11:00,
2013-07-01 14:22:00,82.0,57.0,30.15,West,279,0.0,5.0,42,0.00,,,0.00,,2013-07-01 19:22:00,
2013-07-01 14:33:00,83.0,56.0,30.14,North,6,0.0,3.0,40,0.00,,,0.00,,2013-07-01 19:33:00,
2013-07-01 14:44:00,83.0,56.0,30.14,North,6,0.0,3.0,40,0.00,,,0.00,,2013-07-01 19:44:00,
2013-07-01 14:53:00,82.0,56.0,30.14,North,356,0.0,4.0,41,0.00,,,0.00,,2013-07-01 19:53:00,
2013-07-01 15:02:00,82.0,56.0,30.14,ENE,68,0.0,0.0,41,0.00,,,0.00,,2013-07-01 20:02:00,
2013-07-01 15:11:00,82.0,56.0,30.14,ENE,68,0.0,0.0,41,0.00,,,0.00,,2013-07-01 20:11:00,
2013-07-01 15:22:00,82.0,57.0,30.14,North,9,0.0,4.0,42,0.00,,,0.00,,2013-07-01 20:22:00,
2013-07-01 15:34:00,82.0,57.0,30.13,North,0,0.0,0.0,42,0.00,,,0.00,,2013-07-01 20:34:00,
2013-07-01 15:43:00,82.0,57.0,30.13,North,0,0.0,0.0,42,0.00,,,0.00,,2013-07-01 20:43:00,
2013-07-01 15:52:00,81.0,57.0,30.13,SSE,166,0.0,2.0,44,0.00,,,0.00,,2013-07-01 20:52:00,
2013-07-01 16:01:00,82.0,57.0,30.13,SE,145,0.0,2.0,43,0.00,,,0.00,,2013-07-01 21:01:00,
2013-07-01 16:11:00,82.0,57.0,30.13,SE,145,0.0,2.0,43,0.00,,,0.00,,2013-07-01 21:11:00,
2013-07-01 16:24:00,83.0,58.0,30.13,NNE,22,0.0,1.0,43,0.00,,,0.00,,2013-07-01 21:24:00,
2013-07-01 16:34:00,81.0,56.0,30.13,North,0,0.0,0.0,43,0.00,,,0.00,,2013-07-01 21:34:00,
2013-07-01 16:43:00,81.0,56.0,30.13,North,0,0.0,0.0,43,0.00,,,0.00,,2013-07-01 21:43:00,
2013-07-01 16:53:00,81.0,57.0,30.12,SE,135,0.0,10.0,44,0.00,,,0.00,,2013-07-01 21:53:00,
2013-07-01 17:01:00,82.0,57.0,30.12,North,0,0.0,0.0,42,0.00,,,0.00,,2013-07-01 22:01:00,
2013-07-01 17:11:00,82.0,57.0,30.12,North,0,0.0,0.0,42,0.00,,,0.00,,2013-07-01 22:11:00,
2013-07-01 17:24:00,81.0,57.0,30.12,North,0,0.0,0.0,44,0.00,,,0.00,,2013-07-01 22:24:00,
2013-07-01 17:33:00,81.0,58.0,30.12,NE,45,0.0,0.0,45,0.00,,,0.00,,2013-07-01 22:33:00,
2013-07-01 17:43:00,81.0,58.0,30.12,NE,45,0.0,0.0,45,0.00,,,0.00,,2013-07-01 22:43:00,
2013-07-01 17:53:00,80.0,56.0,30.12,North,0,0.0,0.0,44,0.00,,,0.00,,2013-07-01 22:53:00,
2013-07-01 18:01:00,78.0,57.0,30.12,North,0,0.0,0.0,48,0.00,,,0.00,,2013-07-01 23:01:00,
2013-07-01 18:11:00,78.0,57.0,30.12,North,0,0.0,0.0,48,0.00,,,0.00,,2013-07-01 23:11:00,
2013-07-01 18:22:00,77.0,56.0,30.12,North,0,0.0,0.0,49,0.00,,,0.00,,2013-07-01 23:22:00,
2013-07-01 18:33:00,75.0,57.0,30.13,NW,312,0.0,3.0,53,0.00,,,0.00,,2013-07-01 23:33:00,
2013-07-01 18:44:00,75.0,57.0,30.13,NW,312,0.0,3.0,53,0.00,,,0.00,,2013-07-01 23:44:00,
2013-07-01 18:53:00,74.0,57.0,30.13,North,0,0.0,0.0,55,0.00,,,0.00,,2013-07-01 23:53:00,
2013-07-01 19:01:00,73.0,57.0,30.13,North,0,0.0,0.0,57,0.00,,,0.00,,2013-07-02 00:01:00,
2013-07-01 19:12:00,73.0,57.0,30.13,North,0,0.0,0.0,57,0.00,,,0.00,,2013-07-02 00:12:00,
2013-07-01 19:22:00,72.0,56.0,30.13,North,0,0.0,0.0,58,0.00,,,0.00,,2013-07-02 00:22:00,
2013-07-01 19:34:00,72.0,57.0,30.13,North,1,0.0,1.0,59,0.00,,,0.00,,2013-07-02 00:34:00,
2013-07-01 19:43:00,73.0,58.0,30.13,North,0,0.0,0.0,59,0.00,,,0.00,,2013-07-02 00:43:00,
2013-07-01 19:53:00,73.0,58.0,30.13,North,0,0.0,0.0,59,0.00,,,0.00,,2013-07-02 00:53:00,
2013-07-01 20:01:00,72.0,57.0,30.12,North,0,0.0,0.0,60,0.00,,,0.00,,2013-07-02 01:01:00,
2013-07-01 20:11:00,72.0,57.0,30.12,North,0,0.0,0.0,60,0.00,,,0.00,,2013-07-02 01:11:00,
2013-07-01 20:22:00,72.0,58.0,30.13,North,0,0.0,0.0,61,0.00,,,0.00,,2013-07-02 01:22:00,
2013-07-01 20:33:00,71.0,57.0,30.13,North,0,0.0,0.0,62,0.00,,,0.00,,2013-07-02 01:33:00,
2013-07-01 20:43:00,71.0,58.0,30.12,North,0,0.0,0.0,64,0.00,,,0.00,,2013-07-02 01:43:00,
2013-07-01 20:53:00,71.0,58.0,30.12,North,0,0.0,0.0,64,0.00,,,0.00,,2013-07-02 01:53:00,
2013-07-01 21:02:00,71.0,58.0,30.13,North,0,0.0,0.0,64,0.00,,,0.00,,2013-07-02 02:02:00,
2013-07-01 21:11:00,71.0,58.0,30.13,North,0,0.0,0.0,64,0.00,,,0.00,,2013-07-02 02:11:00,
2013-07-01 21:22:00,71.0,58.0,30.13,North,0,0.0,0.0,64,0.00,,,0.00,,2013-07-02 02:22:00,
2013-07-01 21:33:00,71.0,58.0,30.13,North,0,0.0,0.0,64,0.00,,,0.00,,2013-07-02 02:33:00,
2013-07-01 21:43:00,71.0,58.0,30.13,North,0,0.0,0.0,64,0.00,,,0.00,,2013-07-02 02:43:00,